Weather Roundup
Issued by NWS

Home | Current Version | Previous Version | Text Only | Print | Product List | Glossary On
Versions: 1 2 3 4 5 6 7 8 9 10 11 12 13 14 15 16 17 18 19 20 21 22 23 24 25 26 27 28 29 30 31 32 33 34 35 36 37 38 39 40 41 42 43 44 45 46 47 48 49 50
000
NZUS93 KARX 052310
HRRWXR

CURRENT HOURLY OBSERVATIONS ACROSS
MUCH OF THE UPPER MISSISSIPPI VALLEY
NATIONAL WEATHER SERVICE LA CROSSE WI
500 PM CST THU MAR 05 2015


...SOUTHEAST MINNESOTA...


CITY           SKY/WX    TMP DP  RH WIND       PRES   REMARKS
ROCHESTER      SUNNY      8  -1  66 SW9       30.42F WCI  -5
ROCHESTER/MAYO FAIR      13   0  55 SW6       30.43S WCI   4
WINONA         CLEAR     14   0  52 W7        30.49S WCI   4
AUSTIN         SUNNY     10   0  61 S8        30.42F WCI  -1
ALBERT LEA     SUNNY     14   3  62 S8        30.41S WCI   3
DODGE CENTER   MOSUNNY   10   1  67 SW8       30.40F WCI  -1
PRESTON        SUNNY      8  -2  65 W8        30.43F WCI  -5
OWATONNA       SUNNY     16   1  53 S9        30.40F WCI   4
FARIBAULT      SUNNY     16   1  53 S8        30.41F WCI   5
$$

...ELSEWHERE IN MINNESOTA...


CITY           SKY/WX    TMP DP  RH WIND       PRES   REMARKS
MINNEAPOLIS    SUNNY     15   0  51 SW8       30.41F WCI   4
INTNL FALLS    CLEAR     16  -6  37 SW12G18   30.14F WCI   3
DULUTH         CLEAR     14  -7  38 SW12      30.24F WCI   0
RED WING       SUNNY     14  -2  48 SW8       30.44F WCI   3
REDWOOD FALLS  SUNNY     20   4  50 SW13      30.35F WCI   7
MANKATO        SUNNY     18   1  49 S10       30.40S WCI   6
FAIRMONT       SUNNY     19   3  49 S9        30.38S WCI   9
$$

...SOUTHWEST WISCONSIN...


CITY           SKY/WX    TMP DP  RH WIND       PRES   REMARKS
LA CROSSE      CLEAR     15  -2  46 N7        30.47F WCI   5
PRAIRIE DU CHI CLEAR     12  -6  45 W8        30.51S WCI   0
BOSCOBEL       MIX PCPN  15  -5  40 W9        30.50S WCI   3
LONE ROCK      CLEAR     15  -5  40 W8        30.48S WCI   4
PLATTEVILLE    CLEAR     11  -3  52 W6        30.47S WCI   2
FORT MC COY    CLEAR     14  -5  42 W7        30.46F WCI   4
VIROQUA        FAIR      11  -4  49 SW8       30.42F WCI   0
WIS DELLS      CLEAR     14  -6  41 W7        30.44S WCI   4
$$

...ELSEWHERE IN WISCONSIN...


CITY           SKY/WX    TMP DP  RH WIND       PRES   REMARKS
MILWAUKEE      CLEAR     16  -5  39 W7        30.47R WCI   6
MADISON        CLEAR     16  -5  39 W8        30.45S WCI   5
GREEN BAY      CLEAR     13  -5  44 W14       30.42S WCI  -2
EAU CLAIRE     CLEAR     10  -7  46 SW8       30.43S WCI  -2
BLACK RVR FLS  FAIR      15  -8  36 W6        30.44S WCI   6
MEDFORD        CLEAR      7  -9  47 SW9       30.34F WCI  -7
WAUSAU         CLEAR      8  -7  50 W8        30.36F WCI  -4
WIS RAPIDS     CLEAR     14  -8  37 W7        30.42S WCI   4
MARSHFIELD     CLEAR     11  -7  44 W7        30.38S WCI   0
RICE LAKE      CLEAR     10  -6  47 SW8       30.40F WCI  -1
$$

...NORTHEAST IOWA...


CITY           SKY/WX    TMP DP  RH WIND       PRES   REMARKS
DECORAH        CLEAR      9  -4  56 VRB6      30.45F WCI  -1
MASON CITY     SUNNY     12   3  67 S8        30.44F WCI   0
CHARLES CITY   SUNNY      9   0  66 S7        30.47F WCI  -3
OELWEIN        SUNNY      9  -2  61 W5        30.49S WCI   0
$$

...ELSEWHERE IN IOWA...


CITY           SKY/WX    TMP DP  RH WIND       PRES   REMARKS
DES MOINES     SUNNY     21  -1  38 SW6       30.49S WCI  13
IOWA CITY      SUNNY     12  -1  56 W7        30.56S WCI   1
FORT DODGE     SUNNY     19   5  53 S9        30.44F WCI   9
$$

...NORTHERN ILLINOIS...


CITY           SKY/WX    TMP DP  RH WIND       PRES   REMARKS
CHICAGO-OHARE  CLEAR     14  -2  49 W8        30.48S WCI   3
CHICAGO-MIDWAY CLEAR     18  -1  43 NW9       30.50S WCI   7
MOLINE         CLEAR     14  -1  51 W5        30.54F WCI   6
ROCKFORD       CLEAR     12  -4  48 NW7       30.52R WCI   1
PEORIA         CLEAR     15   0  51 W8        30.56R WCI   4
$$

NOTE: "FAIR" INDICATES FEW OR NO CLOUDS BELOW 12,000 FEET WITH NO
SIGNIFICANT WEATHER AND/OR OBSTRUCTIONS TO VISIBILITY. WIND
SPEEDS ARE IN MILES-PER-HOUR.



USA.gov is the U.S. government's official web portal to all federal, state and local government web resources and services.